Weather History for Willmar, MN

Change the Weather History Date:

Sunday, November 4, 2012

  Actual Average (KLJF) Record (KLJF)
Temperature  
Mean Temperature 40 °F -  
Max Temperature 42 °F 44 °F 74 °F (1975)
Min Temperature 37 °F 28 °F -1 °F (1991)
Degree Days  
Heating Degree Days 26    
Moisture  
Dew Point 35 °F    
Average Humidity 87    
Maximum Humidity 93    
Minimum Humidity 76    
Precipitation  
Precipitation 0.00 in - - ()
Sea Level Pressure  
Sea Level Pressure 30.17 in    
Wind  
Wind Speed 6 mph (East)    
Max Wind Speed 12 mph    
Max Gust Speed -    
Visibility 6 miles    
Events      
Averages and records for this station are not official NWS values.
T = Trace of Precipitation, MM = Missing Value Source: NWS Daily Summary

Daily Weather History Graph

Daily Weather History Graph

Search for Another Location

Airport:

Trip Planner

Search our weather history database for the weather conditions in past years. The results will help you decide how hot, cold, wet, or windy it might be!

Date:

Astronomy

Nov. 04, 2012 Rise Set
Actual Time 7:04 AM CST 5:03 PM CST
Civil Twilight 6:33 AM CST 5:34 PM CST
Nautical Twilight 5:58 AM CST 6:09 PM CST
Astronomical Twilight 5:23 AM CST 6:43 PM CST
Moon 9:40 PM CST (11/4) 11:51 AM CST (11/4)
Length of Visible Light 11h 01m
Length of Day
9h 59m
Waning Gibbous, 72% of the Moon is Illuminated
Nov 4
Waning Gibbous
Nov 6
Last Quarter
Nov 13
New
Nov 20
First Quarter
Nov 28
Full

Hourly Weather History & Observations

Time (CST) Temp. Windchill Dew Point Humidity Pressure Visibility Wind Dir Wind Speed Gust Speed Precip Events Conditions
12:15 AM 37.4 °F 32.1 °F 33.8 °F 87% 30.21 in 10.0 mi East 6.9 mph - N/A   Overcast
12:35 AM 37.4 °F 31.4 °F 33.8 °F 87% 30.20 in 10.0 mi ESE 8.1 mph - N/A   Overcast
12:55 AM 37.4 °F 32.1 °F 33.8 °F 87% 30.20 in 10.0 mi ESE 6.9 mph - N/A   Overcast
1:15 AM 37.4 °F 32.8 °F 33.8 °F 87% 30.20 in 10.0 mi ESE 5.8 mph - N/A   Overcast
1:35 AM 37.4 °F 32.1 °F 33.8 °F 87% 30.20 in 10.0 mi East 6.9 mph - N/A   Overcast
1:15 AM 37.4 °F 32.8 °F 33.8 °F 87% 30.21 in 10.0 mi ESE 5.8 mph - N/A   Overcast
1:36 AM 37.4 °F 33.8 °F 33.8 °F 87% 30.21 in 10.0 mi East 4.6 mph - N/A   Overcast
1:55 AM 37.4 °F 33.8 °F 33.8 °F 87% 30.21 in 10.0 mi East 4.6 mph - N/A   Overcast
2:15 AM 37.4 °F 33.8 °F 33.8 °F 87% 30.21 in 10.0 mi East 4.6 mph - N/A   Overcast
2:36 AM 37.4 °F 34.9 °F 33.8 °F 87% 30.21 in 10.0 mi ESE 3.5 mph - N/A   Overcast
2:55 AM 37.4 °F 33.8 °F 33.8 °F 87% 30.21 in 7.0 mi ESE 4.6 mph - N/A   Overcast
3:15 AM 37.4 °F 32.8 °F 33.8 °F 87% 30.20 in 7.0 mi ESE 5.8 mph - N/A   Overcast
3:36 AM 37.4 °F 32.8 °F 35.6 °F 93% 30.20 in 4.0 mi ESE 5.8 mph - N/A   Overcast
3:55 AM 37.4 °F 33.8 °F 35.6 °F 93% 30.20 in 2.0 mi ESE 4.6 mph - N/A   Overcast
4:15 AM 37.4 °F 34.9 °F 35.6 °F 93% 30.20 in 1.8 mi ESE 3.5 mph - N/A   Overcast
4:36 AM 37.4 °F 34.9 °F 35.6 °F 93% 30.20 in 1.8 mi ESE 3.5 mph - N/A   Overcast
4:55 AM 37.4 °F 33.8 °F 35.6 °F 93% 30.21 in 1.8 mi ESE 4.6 mph - N/A   Overcast
5:15 AM 37.4 °F 33.8 °F 35.6 °F 93% 30.21 in 1.8 mi ESE 4.6 mph - N/A   Drizzle
5:36 AM 37.4 °F 32.8 °F 35.6 °F 93% 30.20 in 2.5 mi East 5.8 mph - N/A   Drizzle
5:55 AM 37.4 °F 32.8 °F 35.6 °F 93% 30.20 in 3.0 mi East 5.8 mph - N/A   Light Drizzle
6:15 AM 37.4 °F 32.8 °F 35.6 °F 93% 30.19 in 4.0 mi East 5.8 mph - N/A   Overcast
6:36 AM 37.4 °F 32.1 °F 35.6 °F 93% 30.19 in 4.0 mi ESE 6.9 mph - N/A   Overcast
6:55 AM 37.4 °F 32.8 °F 35.6 °F 93% 30.20 in 4.0 mi ESE 5.8 mph - N/A   Overcast
7:15 AM 37.4 °F 32.8 °F 35.6 °F 93% 30.20 in 4.0 mi ESE 5.8 mph - N/A   Overcast
7:35 AM 37.4 °F 32.8 °F 35.6 °F 93% 30.20 in 2.5 mi ESE 5.8 mph - N/A   Overcast
7:55 AM 37.4 °F 32.8 °F 35.6 °F 93% 30.20 in 3.0 mi ESE 5.8 mph - N/A   Overcast
8:15 AM 37.4 °F 32.8 °F 35.6 °F 93% 30.20 in 2.5 mi ESE 5.8 mph - N/A   Overcast
8:35 AM 37.4 °F 32.8 °F 35.6 °F 93% 30.19 in 2.0 mi ESE 5.8 mph - N/A   Overcast
8:55 AM 39.2 °F 33.6 °F 35.6 °F 87% 30.19 in 2.0 mi ESE 8.1 mph - N/A   Overcast
9:15 AM 39.2 °F 34.2 °F 35.6 °F 87% 30.19 in 2.5 mi East 6.9 mph - N/A   Overcast
9:35 AM 39.2 °F 34.2 °F 37.4 °F 93% 30.18 in 2.5 mi East 6.9 mph - N/A   Overcast
9:55 AM 39.2 °F 33.6 °F 37.4 °F 93% 30.18 in 1.8 mi East 8.1 mph - N/A   Overcast
10:15 AM 39.2 °F 33.0 °F 37.4 °F 93% 30.18 in 0.8 mi East 9.2 mph - N/A   Overcast
10:35 AM 39.2 °F 33.0 °F 37.4 °F 93% 30.18 in 0.8 mi East 9.2 mph - N/A   Overcast
10:55 AM 39.2 °F 33.6 °F 37.4 °F 93% 30.17 in 1.2 mi East 8.1 mph - N/A   Overcast
11:15 AM 39.2 °F 33.6 °F 37.4 °F 93% 30.17 in 0.8 mi East 8.1 mph - N/A   Overcast
11:35 AM 39.2 °F 34.2 °F 37.4 °F 93% 30.17 in 1.2 mi East 6.9 mph - N/A   Overcast
11:55 AM 39.2 °F 33.0 °F 37.4 °F 93% 30.17 in 1.8 mi East 9.2 mph - N/A   Overcast
12:15 PM 39.2 °F 32.0 °F 37.4 °F 93% 30.16 in 3.0 mi East 11.5 mph - N/A   Overcast
12:35 PM 39.2 °F 33.0 °F 37.4 °F 93% 30.15 in 3.0 mi East 9.2 mph - N/A   Overcast
12:55 PM 39.2 °F 33.6 °F 37.4 °F 93% 30.14 in 3.0 mi East 8.1 mph - N/A   Overcast
1:15 PM 39.2 °F 33.6 °F 37.4 °F 93% 30.14 in 4.0 mi East 8.1 mph - N/A   Overcast
1:35 PM 39.2 °F 34.2 °F 37.4 °F 93% 30.14 in 5.0 mi East 6.9 mph - N/A   Overcast
1:55 PM 41.0 °F 37.1 °F 37.4 °F 87% 30.13 in 5.0 mi East 5.8 mph - N/A   Overcast
2:15 PM 41.0 °F 36.4 °F 37.4 °F 87% 30.13 in 5.0 mi East 6.9 mph - N/A   Overcast
2:35 PM 41.0 °F 37.1 °F 37.4 °F 87% 30.13 in 7.0 mi East 5.8 mph - N/A   Overcast
2:55 PM 41.0 °F 38.0 °F 37.4 °F 87% 30.13 in 7.0 mi East 4.6 mph - N/A   Overcast
3:15 PM 42.8 °F 40.1 °F 37.4 °F 81% 30.13 in 7.0 mi East 4.6 mph - N/A   Overcast
3:35 PM 42.8 °F 38.6 °F 37.4 °F 81% 30.13 in 7.0 mi ENE 6.9 mph - N/A   Overcast
3:55 PM 42.8 °F 39.3 °F 35.6 °F 76% 30.13 in 7.0 mi ENE 5.8 mph - N/A   Overcast
4:15 PM 42.8 °F 38.0 °F 35.6 °F 76% 30.13 in 10.0 mi ENE 8.1 mph - N/A   Overcast
4:35 PM 42.8 °F 38.6 °F 35.6 °F 76% 30.13 in 10.0 mi ENE 6.9 mph - N/A   Overcast
4:55 PM 41.0 °F 35.8 °F 35.6 °F 81% 30.13 in 10.0 mi ENE 8.1 mph - N/A   Overcast
5:15 PM 41.0 °F 36.4 °F 35.6 °F 81% 30.13 in 10.0 mi ENE 6.9 mph - N/A   Overcast
5:35 PM 41.0 °F 35.8 °F 35.6 °F 81% 30.13 in 10.0 mi ENE 8.1 mph - N/A   Overcast
5:55 PM 41.0 °F 34.7 °F 35.6 °F 81% 30.14 in 10.0 mi ENE 10.4 mph - N/A   Overcast
6:15 PM 41.0 °F 36.4 °F 33.8 °F 76% 30.14 in 10.0 mi ENE 6.9 mph - N/A   Overcast
6:35 PM 41.0 °F 37.1 °F 33.8 °F 76% 30.14 in 10.0 mi ENE 5.8 mph - N/A   Overcast
6:55 PM 39.2 °F 35.0 °F 33.8 °F 81% 30.15 in 10.0 mi ENE 5.8 mph - N/A   Overcast
7:15 PM 39.2 °F 35.9 °F 33.8 °F 81% 30.15 in 10.0 mi ENE 4.6 mph - N/A   Overcast
7:35 PM 39.2 °F 35.9 °F 33.8 °F 81% 30.15 in 10.0 mi NE 4.6 mph - N/A   Overcast
7:55 PM 39.2 °F 35.0 °F 33.8 °F 81% 30.14 in 10.0 mi NE 5.8 mph - N/A   Overcast
8:15 PM 39.2 °F 35.0 °F 33.8 °F 81% 30.14 in 10.0 mi NE 5.8 mph - N/A   Overcast
8:35 PM 39.2 °F 35.9 °F 33.8 °F 81% 30.14 in 10.0 mi NE 4.6 mph - N/A   Overcast
8:55 PM 39.2 °F 35.0 °F 33.8 °F 81% 30.14 in 10.0 mi NE 5.8 mph - N/A   Overcast
9:15 PM 41.0 °F 37.1 °F 33.8 °F 76% 30.14 in 10.0 mi NE 5.8 mph - N/A   Overcast
9:35 PM 41.0 °F 37.1 °F 33.8 °F 76% 30.14 in 10.0 mi NE 5.8 mph - N/A   Overcast
9:55 PM 41.0 °F 35.8 °F 33.8 °F 76% 30.14 in 10.0 mi ENE 8.1 mph - N/A   Overcast
10:15 PM 41.0 °F 35.8 °F 33.8 °F 76% 30.14 in 10.0 mi NE 8.1 mph - N/A   Overcast
10:35 PM 41.0 °F 35.2 °F 35.6 °F 81% 30.14 in 7.0 mi NE 9.2 mph - N/A   Overcast
10:55 PM 41.0 °F 35.2 °F 35.6 °F 81% 30.14 in 5.0 mi ENE 9.2 mph - N/A   Light Drizzle